AAL407 MKJP-MWCR

Flight info

Callsign AAL407
Flight time 0h 59m
Altitude 36000
Route GUDIL5 KEMBO UG633 NALRO GORAN3
Aircraft A321/M-SDE3FGHIRWY/LB1

Departure

Time 2026-04-22 01:54
Airport Norman Manley International Airport (MKJP)

Arrival

Time 2026-04-22 02:53
Airport Owen Roberts International Airport (MWCR)
Time Latitude Longitude Altitude Speed Heading
2026-04-22 01:44 17.93605 -76.77954 25 ft 0 kts 290°
2026-04-22 01:48 17.93603 -76.77946 25 ft 2 kts 290°
2026-04-22 01:48 17.93597 -76.77930 25 ft 3 kts 295°
2026-04-22 01:49 17.93587 -76.77912 25 ft 3 kts 308°
2026-04-22 01:49 17.93572 -76.77896 25 ft 3 kts 321°
2026-04-22 01:49 17.93555 -76.77884 25 ft 3 kts 334°
2026-04-22 01:49 17.93536 -76.77877 25 ft 3 kts 346°
2026-04-22 01:50 17.93520 -76.77874 25 ft 0 kts 354°
2026-04-22 01:50 17.93521 -76.77874 25 ft 0 kts 354°
2026-04-22 01:51 17.93523 -76.77874 25 ft 1 kts 356°
2026-04-22 01:51 17.93530 -76.77871 25 ft 2 kts 39°
2026-04-22 01:51 17.93532 -76.77857 25 ft 2 kts 111°
2026-04-22 01:51 17.93515 -76.77852 25 ft 3 kts 197°
2026-04-22 01:52 17.93494 -76.77867 25 ft 4 kts 223°
2026-04-22 01:52 17.93471 -76.77889 25 ft 5 kts 211°
2026-04-22 01:52 17.93431 -76.77903 25 ft 9 kts 173°
2026-04-22 01:52 17.93377 -76.77824 25 ft 16 kts 110°
2026-04-22 01:53 17.93305 -76.77733 25 ft 21 kts 183°
2026-04-22 01:53 17.93220 -76.77764 25 ft 14 kts 219°
2026-04-22 01:53 17.93207 -76.77808 25 ft 5 kts 281°
2026-04-22 01:53 17.93330 -76.78142 25 ft 91 kts 294°
2026-04-22 01:54 17.93653 -76.79013 28 ft 162 kts 294°
2026-04-22 01:54 17.94089 -76.80158 687 ft 171 kts 292°
2026-04-22 01:54 17.94514 -76.81333 1695 ft 179 kts 292°
2026-04-22 01:54 17.95111 -76.82567 2330 ft 202 kts 300°
2026-04-22 01:55 17.95861 -76.84025 2414 ft 250 kts 301°
2026-04-22 01:55 17.96731 -76.85722 2985 ft 268 kts 301°
2026-04-22 01:55 17.97624 -76.87471 3885 ft 277 kts 300°
2026-04-22 01:55 17.98545 -76.89274 4780 ft 283 kts 300°
2026-04-22 01:56 17.99477 -76.91110 5698 ft 287 kts 300°
2026-04-22 01:56 18.00423 -76.92974 6598 ft 289 kts 299°
2026-04-22 01:56 18.01360 -76.94822 7501 ft 293 kts 299°
2026-04-22 01:56 18.02323 -76.96720 8341 ft 296 kts 299°
2026-04-22 01:57 18.03297 -76.98643 9123 ft 301 kts 298°
2026-04-22 01:57 18.04278 -77.00583 10003 ft 300 kts 298°
2026-04-22 01:57 18.05278 -77.02554 10509 ft 316 kts 298°
2026-04-22 01:57 18.06356 -77.04678 10848 ft 334 kts 298°
2026-04-22 01:58 18.07441 -77.06820 11855 ft 330 kts 298°
2026-04-22 01:58 18.08526 -77.08962 12609 ft 334 kts 297°
2026-04-22 01:58 18.09625 -77.11133 13367 ft 338 kts 297°
2026-04-22 01:58 18.10722 -77.13304 14079 ft 342 kts 297°
2026-04-22 01:59 18.11844 -77.15524 14790 ft 345 kts 297°
2026-04-22 01:59 18.12980 -77.17771 15480 ft 349 kts 297°
2026-04-22 01:59 18.14126 -77.20040 16155 ft 353 kts 297°
2026-04-22 01:59 18.15281 -77.22325 16811 ft 356 kts 297°
2026-04-22 02:00 18.16452 -77.24645 17452 ft 360 kts 297°
2026-04-22 02:00 18.17632 -77.26981 18077 ft 364 kts 297°
2026-04-22 02:00 18.18822 -77.29339 18700 ft 367 kts 297°
2026-04-22 02:00 18.20007 -77.31687 19335 ft 369 kts 297°
2026-04-22 02:01 18.21219 -77.34089 19922 ft 372 kts 297°
2026-04-22 02:01 18.22424 -77.36505 20524 ft 375 kts 297°
2026-04-22 02:01 18.23633 -77.38942 21093 ft 377 kts 297°
2026-04-22 02:01 18.24855 -77.41401 21673 ft 380 kts 297°
2026-04-22 02:02 18.26081 -77.43870 22200 ft 382 kts 297°
2026-04-22 02:02 18.27320 -77.46363 22730 ft 385 kts 297°
2026-04-22 02:02 18.28555 -77.48848 23231 ft 387 kts 297°
2026-04-22 02:02 18.29809 -77.51372 23707 ft 390 kts 297°
2026-04-22 02:03 18.31067 -77.53904 24198 ft 392 kts 297°
2026-04-22 02:03 18.32338 -77.56462 24673 ft 394 kts 297°
2026-04-22 02:03 18.33611 -77.59024 25188 ft 394 kts 297°
2026-04-22 02:03 18.34878 -77.61576 25724 ft 393 kts 297°
2026-04-22 02:04 18.37429 -77.66719 26565 ft 397 kts 296°
2026-04-22 02:04 18.38709 -77.69299 26986 ft 398 kts 296°
2026-04-22 02:04 18.39978 -77.71860 27362 ft 400 kts 296°
2026-04-22 02:05 18.41269 -77.74465 27747 ft 401 kts 296°
2026-04-22 02:05 18.42561 -77.77075 28115 ft 403 kts 296°
2026-04-22 02:05 18.43863 -77.79705 28471 ft 404 kts 296°
2026-04-22 02:05 18.45166 -77.82337 28815 ft 405 kts 296°
2026-04-22 02:06 18.46467 -77.84968 29139 ft 407 kts 296°
2026-04-22 02:06 18.47779 -77.87621 29454 ft 408 kts 296°
2026-04-22 02:06 18.49085 -77.90268 29753 ft 409 kts 296°
2026-04-22 02:06 18.50342 -77.92971 30034 ft 409 kts 291°
2026-04-22 02:07 18.51225 -77.95816 30322 ft 409 kts 283°
2026-04-22 02:07 18.51936 -77.98717 30597 ft 409 kts 283°
2026-04-22 02:07 18.52643 -78.01635 30856 ft 410 kts 283°
2026-04-22 02:07 18.53343 -78.04547 31108 ft 411 kts 282°
2026-04-22 02:08 18.54033 -78.07434 31344 ft 412 kts 282°
2026-04-22 02:08 18.54732 -78.10372 31571 ft 413 kts 282°
2026-04-22 02:08 18.55430 -78.13315 31834 ft 414 kts 282°
2026-04-22 02:08 18.56127 -78.16266 32054 ft 415 kts 282°
2026-04-22 02:09 18.56826 -78.19232 32284 ft 416 kts 282°
2026-04-22 02:09 18.57521 -78.22189 32525 ft 417 kts 281°
2026-04-22 02:09 18.58219 -78.25160 32746 ft 418 kts 281°
2026-04-22 02:09 18.58910 -78.28111 32966 ft 419 kts 281°
2026-04-22 02:10 18.59609 -78.31095 33204 ft 420 kts 281°
2026-04-22 02:10 18.60316 -78.34121 33412 ft 421 kts 281°
2026-04-22 02:10 18.61009 -78.37091 33642 ft 422 kts 281°
2026-04-22 02:10 18.61709 -78.40088 33847 ft 423 kts 281°
2026-04-22 02:11 18.62414 -78.43113 34069 ft 424 kts 281°
2026-04-22 02:11 18.63117 -78.46133 34345 ft 423 kts 281°
2026-04-22 02:11 18.63817 -78.49147 34621 ft 422 kts 281°
2026-04-22 02:11 18.64515 -78.52148 34886 ft 422 kts 281°
2026-04-22 02:12 18.65214 -78.55162 35110 ft 422 kts 281°
2026-04-22 02:12 18.65903 -78.58133 35367 ft 422 kts 281°
2026-04-22 02:12 18.66600 -78.61138 35592 ft 422 kts 281°
2026-04-22 02:12 18.67296 -78.64145 35839 ft 422 kts 281°
2026-04-22 02:13 18.67992 -78.67156 35967 ft 426 kts 281°
2026-04-22 02:13 18.69394 -78.73216 36011 ft 423 kts 281°
2026-04-22 02:14 18.70786 -78.79246 36017 ft 423 kts 281°
2026-04-22 02:14 18.72170 -78.85250 36021 ft 424 kts 281°
2026-04-22 02:15 18.73565 -78.91313 36025 ft 425 kts 281°
2026-04-22 02:15 18.74958 -78.97371 36028 ft 425 kts 281°
2026-04-22 02:16 18.76345 -79.03439 36032 ft 426 kts 281°
2026-04-22 02:16 18.77735 -79.09509 36038 ft 426 kts 281°
2026-04-22 02:17 18.79125 -79.15555 36039 ft 426 kts 281°
2026-04-22 02:17 18.80528 -79.21644 36043 ft 427 kts 281°
2026-04-22 02:18 18.81933 -79.27733 34987 ft 429 kts 281°
2026-04-22 02:18 18.82644 -79.30818 33861 ft 435 kts 281°
2026-04-22 02:18 18.83358 -79.33917 33144 ft 432 kts 282°
2026-04-22 02:18 18.84061 -79.36966 32728 ft 421 kts 282°
2026-04-22 02:19 18.84748 -79.39946 32312 ft 413 kts 282°
2026-04-22 02:19 18.85411 -79.42829 31906 ft 405 kts 282°
2026-04-22 02:19 18.86068 -79.45690 31518 ft 398 kts 282°
2026-04-22 02:19 18.86715 -79.48514 31114 ft 392 kts 283°
2026-04-22 02:20 18.87348 -79.51303 30720 ft 389 kts 283°
2026-04-22 02:20 18.87980 -79.54083 30337 ft 388 kts 283°
2026-04-22 02:20 18.88604 -79.56822 29953 ft 387 kts 283°
2026-04-22 02:20 18.89233 -79.59580 29567 ft 385 kts 283°
2026-04-22 02:21 18.89860 -79.62318 29180 ft 383 kts 283°
2026-04-22 02:21 18.90485 -79.65052 28786 ft 381 kts 283°
2026-04-22 02:21 18.91107 -79.67775 28412 ft 380 kts 283°
2026-04-22 02:21 18.91724 -79.70471 28030 ft 377 kts 283°
2026-04-22 02:22 18.92340 -79.73170 27651 ft 377 kts 283°
2026-04-22 02:22 18.92952 -79.75853 27273 ft 375 kts 283°
2026-04-22 02:22 18.93562 -79.78526 26895 ft 373 kts 283°
2026-04-22 02:22 18.94169 -79.81188 26520 ft 372 kts 283°
2026-04-22 02:23 18.94771 -79.83830 26152 ft 369 kts 283°
2026-04-22 02:23 18.95367 -79.86444 25779 ft 368 kts 283°
2026-04-22 02:23 18.95963 -79.89063 25411 ft 367 kts 283°
2026-04-22 02:23 18.96559 -79.91686 25070 ft 365 kts 283°
2026-04-22 02:24 18.97151 -79.94293 24711 ft 364 kts 283°
2026-04-22 02:24 18.97740 -79.96886 24347 ft 362 kts 283°
2026-04-22 02:24 18.98325 -79.99463 23986 ft 360 kts 284°
2026-04-22 02:24 18.98908 -80.02035 23626 ft 359 kts 284°
2026-04-22 02:25 18.99481 -80.04567 23273 ft 358 kts 284°
2026-04-22 02:25 19.00060 -80.07125 22917 ft 356 kts 284°
2026-04-22 02:25 19.00634 -80.09659 22565 ft 354 kts 284°
2026-04-22 02:25 19.01207 -80.12192 22213 ft 353 kts 284°
2026-04-22 02:26 19.01776 -80.14709 21867 ft 351 kts 284°
2026-04-22 02:26 19.02342 -80.17217 21519 ft 349 kts 284°
2026-04-22 02:26 19.02908 -80.19721 21208 ft 354 kts 284°
2026-04-22 02:26 19.03478 -80.22292 20769 ft 363 kts 283°
2026-04-22 02:27 19.04050 -80.24852 20538 ft 363 kts 284°
2026-04-22 02:27 19.04632 -80.27450 20208 ft 362 kts 284°
2026-04-22 02:27 19.05212 -80.30039 19873 ft 360 kts 284°
2026-04-22 02:27 19.05790 -80.32613 19541 ft 358 kts 284°
2026-04-22 02:28 19.06361 -80.35154 19213 ft 357 kts 283°
2026-04-22 02:28 19.06932 -80.37703 18884 ft 355 kts 283°
2026-04-22 02:28 19.07501 -80.40239 18558 ft 354 kts 283°
2026-04-22 02:28 19.08067 -80.42763 18232 ft 352 kts 283°
2026-04-22 02:29 19.08632 -80.45284 17906 ft 351 kts 283°
2026-04-22 02:29 19.09194 -80.47797 17583 ft 349 kts 283°
2026-04-22 02:29 19.09752 -80.50292 17261 ft 348 kts 283°
2026-04-22 02:29 19.10309 -80.52781 16940 ft 347 kts 283°
2026-04-22 02:30 19.10864 -80.55261 16610 ft 346 kts 283°
2026-04-22 02:30 19.11417 -80.57735 16242 ft 343 kts 283°
2026-04-22 02:30 19.11957 -80.60156 15928 ft 343 kts 283°
2026-04-22 02:30 19.12504 -80.62605 15613 ft 342 kts 283°
2026-04-22 02:31 19.13049 -80.65049 15298 ft 340 kts 283°
2026-04-22 02:31 19.13591 -80.67479 14985 ft 338 kts 283°
2026-04-22 02:31 19.14129 -80.69898 14672 ft 338 kts 283°
2026-04-22 02:31 19.14668 -80.72319 14363 ft 337 kts 283°
2026-04-22 02:32 19.15202 -80.74722 14050 ft 335 kts 283°
2026-04-22 02:32 19.15736 -80.77123 13741 ft 334 kts 283°
2026-04-22 02:32 19.16260 -80.79482 13438 ft 333 kts 283°
2026-04-22 02:32 19.16789 -80.81869 13130 ft 332 kts 283°
2026-04-22 02:33 19.17316 -80.84242 12825 ft 332 kts 283°
2026-04-22 02:33 19.17671 -80.85845 12619 ft 331 kts 283°
2026-04-22 02:33 19.18364 -80.88973 12215 ft 330 kts 283°
2026-04-22 02:33 19.18712 -80.90544 12014 ft 329 kts 283°
2026-04-22 02:34 19.19231 -80.92891 11711 ft 327 kts 283°
2026-04-22 02:34 19.19748 -80.95228 11411 ft 326 kts 283°
2026-04-22 02:34 19.20264 -80.97567 11111 ft 326 kts 283°
2026-04-22 02:34 19.20779 -80.99895 10810 ft 322 kts 283°
2026-04-22 02:35 19.21284 -81.02186 10515 ft 316 kts 283°
2026-04-22 02:35 19.21779 -81.04432 10225 ft 311 kts 283°
2026-04-22 02:35 19.22265 -81.06641 9941 ft 306 kts 283°
2026-04-22 02:35 19.22743 -81.08815 9662 ft 301 kts 283°
2026-04-22 02:36 19.23219 -81.10977 9385 ft 302 kts 283°
2026-04-22 02:36 19.23696 -81.13146 9106 ft 302 kts 283°
2026-04-22 02:36 19.24170 -81.15302 8829 ft 300 kts 283°
2026-04-22 02:36 19.24642 -81.17452 8553 ft 299 kts 283°
2026-04-22 02:37 19.25111 -81.19586 8278 ft 297 kts 283°
2026-04-22 02:37 19.25572 -81.21690 8009 ft 297 kts 283°
2026-04-22 02:37 19.26045 -81.23845 7731 ft 296 kts 283°
2026-04-22 02:37 19.26509 -81.25962 7460 ft 294 kts 283°
2026-04-22 02:38 19.26966 -81.28045 7192 ft 293 kts 283°
2026-04-22 02:38 19.27424 -81.30141 6921 ft 292 kts 283°
2026-04-22 02:38 19.27882 -81.32233 6654 ft 291 kts 283°
2026-04-22 02:38 19.28340 -81.34328 6386 ft 291 kts 283°
2026-04-22 02:39 19.28792 -81.36395 6232 ft 283 kts 283°
2026-04-22 02:39 19.29481 -81.38276 6102 ft 272 kts 302°
2026-04-22 02:39 19.30528 -81.39928 5815 ft 270 kts 305°
2026-04-22 02:39 19.31574 -81.41564 5583 ft 266 kts 305°
2026-04-22 02:40 19.32596 -81.43180 5420 ft 264 kts 305°
2026-04-22 02:40 19.33617 -81.44806 5260 ft 264 kts 305°
2026-04-22 02:40 19.34625 -81.46423 5113 ft 261 kts 304°
2026-04-22 02:40 19.35603 -81.47997 5023 ft 251 kts 304°
2026-04-22 02:41 19.36554 -81.49532 4803 ft 246 kts 304°
2026-04-22 02:41 19.37478 -81.51025 4649 ft 245 kts 304°
2026-04-22 02:41 19.38411 -81.52534 4499 ft 244 kts 304°
2026-04-22 02:41 19.39338 -81.54034 4353 ft 244 kts 304°
2026-04-22 02:42 19.40265 -81.55536 4208 ft 243 kts 304°
2026-04-22 02:42 19.41187 -81.57030 4059 ft 242 kts 304°
2026-04-22 02:42 19.42112 -81.58531 3913 ft 242 kts 304°
2026-04-22 02:42 19.43032 -81.60023 3766 ft 241 kts 304°
2026-04-22 02:43 19.43946 -81.61506 3626 ft 237 kts 304°
2026-04-22 02:43 19.44877 -81.62932 3475 ft 234 kts 314°
2026-04-22 02:43 19.46181 -81.63921 3413 ft 232 kts 331°
2026-04-22 02:43 19.47346 -81.65104 3240 ft 235 kts 303°
2026-04-22 02:44 19.47856 -81.66736 3056 ft 238 kts 276°
2026-04-22 02:44 19.47633 -81.68452 2693 ft 237 kts 248°
2026-04-22 02:44 19.46700 -81.69828 2595 ft 231 kts 219°
2026-04-22 02:44 19.45295 -81.70565 2545 ft 224 kts 190°
2026-04-22 02:45 19.43776 -81.70496 2467 ft 215 kts 160°
2026-04-22 02:45 19.42571 -81.69701 2382 ft 199 kts 135°
2026-04-22 02:45 19.41549 -81.68709 2307 ft 198 kts 135°
2026-04-22 02:45 19.40531 -81.67728 2230 ft 198 kts 135°
2026-04-22 02:46 19.39527 -81.66758 2155 ft 198 kts 135°
2026-04-22 02:46 19.38510 -81.65775 2080 ft 197 kts 135°
2026-04-22 02:46 19.37497 -81.64798 2004 ft 197 kts 135°
2026-04-22 02:46 19.36483 -81.63818 1929 ft 197 kts 135°
2026-04-22 02:47 19.35470 -81.62840 1854 ft 197 kts 135°
2026-04-22 02:47 19.34458 -81.61862 1779 ft 196 kts 135°
2026-04-22 02:47 19.33446 -81.60885 1704 ft 196 kts 135°
2026-04-22 02:47 19.32450 -81.59924 1629 ft 196 kts 135°
2026-04-22 02:48 19.31442 -81.58950 1554 ft 196 kts 135°
2026-04-22 02:48 19.30435 -81.57980 1506 ft 195 kts 135°
2026-04-22 02:48 19.29370 -81.57074 1495 ft 198 kts 141°
2026-04-22 02:48 19.28215 -81.56279 1492 ft 198 kts 146°
2026-04-22 02:49 19.27008 -81.55565 1491 ft 199 kts 149°
2026-04-22 02:49 19.25772 -81.54905 1491 ft 199 kts 151°
2026-04-22 02:49 19.24573 -81.54187 1470 ft 197 kts 136°
2026-04-22 02:49 19.23880 -81.52980 1486 ft 193 kts 104°
2026-04-22 02:50 19.23932 -81.51645 1429 ft 169 kts 69°
2026-04-22 02:50 19.24508 -81.50642 1367 ft 157 kts 57°
2026-04-22 02:50 19.25101 -81.49702 1275 ft 154 kts 59°
2026-04-22 02:50 19.25623 -81.48698 970 ft 157 kts 65°
2026-04-22 02:51 19.26066 -81.47645 735 ft 156 kts 68°
2026-04-22 02:51 19.26448 -81.46584 579 ft 153 kts 70°
2026-04-22 02:51 19.26792 -81.45510 378 ft 154 kts 72°
2026-04-22 02:51 19.27112 -81.44419 255 ft 160 kts 73°
2026-04-22 02:52 19.27383 -81.43395 960 ft 127 kts 75°
2026-04-22 02:52 19.27561 -81.42538 1456 ft 132 kts 75°
2026-04-22 02:52 19.27901 -81.41479 1378 ft 161 kts 73°
2026-04-22 02:52 19.28205 -81.40318 1196 ft 168 kts 76°
2026-04-22 02:53 19.28468 -81.39127 860 ft 162 kts 78°
2026-04-22 02:53 19.28710 -81.37989 403 ft 155 kts 76°
2026-04-22 02:53 19.28989 -81.36933 68 ft 139 kts 75°
2026-04-22 02:53 19.29174 -81.36171 23 ft 48 kts 76°
2026-04-22 02:54 19.29233 -81.35934 23 ft 24 kts 69°
2026-04-22 02:54 19.29305 -81.35819 23 ft 19 kts
2026-04-22 02:54 19.29426 -81.35807 23 ft 19 kts 62°
2026-04-22 02:54 19.29502 -81.35739 23 ft 6 kts 347°
2026-04-22 02:55 19.29515 -81.35742 23 ft 0 kts 347°